Miscellaneous Local Product
Issued by NWS North Platte, NE

Home | Current Version | Previous Version | Text Only | Print | Product List | Glossary On
Versions: 1 2 3 4 5 6 7 8 9 10 11 12 13 14 15 16 17 18 19 20 21 22 23 24 25 26 27 28 29 30 31 32 33 34 35 36 37 38 39 40 41 42 43 44 45 46 47 48 49 50
000
AXUS43 KLBF 150910
MISLBF


WESTERN AND NORTH CENTRAL NEBRASKA HOURLY WEATHER ROUNDUP
NATIONAL WEATHER SERVICE NORTH PLATTE NE
300 AM CST FRI DEC 15 2017

NOTE: "FAIR" INDICATES FEW OR NO CLOUDS BELOW 12,000 FEET WITH NO
SIGNIFICANT WEATHER AND/OR OBSTRUCTIONS TO VISIBILITY.

NOTE: STATIONS NOT REPORTING VARIABLES SUCH AS SKY/WEATHER OR
PRESSURE ARE PROVIDED BY RAWS AND APRS NETWORKS AND ARE NOT UNDER
NATIONAL WEATHER SERVICE QUALITY CONTROL.

...OBSERVATIONS IN AND NEAR THE EASTERN PANHANDLE OF NEBRASKA...

CITY           SKY/WX    TMP DP  RH WIND       PRES   REMARKS
PINE RIDGE     CLOUDY    19  16  88 CALM      30.05F
GORDON         FAIR      19  15  82 W8        30.04F WCI   9
CHADRON        CLOUDY    16  13  88 SW5       30.06F WCI   9
ALLIANCE       CLOUDY     7   5  91 W6        30.07F WCI  -3
SIDNEY         CLOUDY    14   8  77 W10       30.10F WCI   1
CRESCENT LAKE    N/A     18  15  86 W6          N/A  WCI  10
$$

...OBSERVATIONS IN NORTHERN NEBRASKA AND FAR SOUTHERN SOUTH DAKOTA...

CITY           SKY/WX    TMP DP  RH WIND       PRES   REMARKS
WINNER         FAIR      28  23  81 SW8       30.03F WCI  20
VALENTINE      CLOUDY    24  20  84 W9        30.05F WCI  14
THEDFORD       CLOUDY    23  20  88 SW5       30.10S WCI  17
AINSWORTH      CLOUDY    25  23  91 W9        30.06F WCI  16
O`NEILL        PTCLDY    31  28  92 W9        30.07R WCI  22
ORD            CLEAR     27  23  85 W13       30.10S WCI  16
BROKEN BOW     CLEAR     24  20  84 W6        30.11S WCI  17
VALENTINE NWR    N/A     24  20  84 W8          N/A  WCI  15
HALSEY           N/A     24  20  84 W6          N/A  WCI  17
BUTTE            N/A     28  25  87 W10         N/A  WCI  19
CHAMBERS         N/A     29  25  84 CALM        N/A
EWING            N/A     31  28  86 W6          N/A  WCI  25
$$

...OBSERVATIONS IN SOUTHWEST NEBRASKA AND FAR NORTHEAST COLORADO...

CITY           SKY/WX    TMP DP  RH WIND       PRES   REMARKS
WRAY           FAIR      18  14  86 W7        30.16S WCI   8
HOLYOKE        FAIR      19  14  79 W9        30.14S WCI   9
IMPERIAL       CLOUDY    16  13  88 W10       30.15F WCI   4
OGALLALA       CLOUDY    16  12  87 W7        30.13S WCI   6
NORTH PLATTE   CLOUDY    16  14  92 W5        30.14S WCI   9
MCCOOK         CLOUDY    18  16  92 W9        30.17F WCI   7
LEXINGTON      CLOUDY    20  17  88 W5        30.14F WCI  14
STAPLETON        N/A     17  14  89 CALM        N/A
GOTHENBURG       N/A     25  21  83 CALM        N/A
CALLAWAY         N/A     23  20  89 W9          N/A  WCI  13
$$

...OBSERVATIONS IN CENTRAL LINCOLN COUNTY AREA...

CITY           SKY/WX    TMP DP  RH WIND       PRES   REMARKS
N.P. AIRPORT   CLOUDY    16  14  92 W5        30.14S WCI   9
N.P. DOWNTOWN    N/A     20  17  87 CALM        N/A
N.P. SOUTHEAST   N/A     20  15  82 W3          N/A
N.P. HILLCREST   N/A     19  17  90 W3          N/A
$$

...SOME OBSERVATIONS FROM AROUND THE REGION...

CITY           SKY/WX    TMP DP  RH WIND       PRES   REMARKS
DENVER         CLOUDY    27  11  51 S16       30.12F WCI  15
GRAND JUNCTION CLOUDY    23  13  65 E8        30.37S WCI  14
LARAMIE        CLOUDY    18   8  65 W9G18     30.14S WCI   7
CHEYENNE       CLOUDY    28   9  44 W17       30.08F WCI  16
CASPER         CLOUDY    29  17  61 SW26G33   30.08F WCI  14
BISMARCK       CLOUDY    30  24  78 W5        29.93F WCI  25
RAPID CITY     CLOUDY    16  10  77 CALM      29.98F
PIERRE         CLOUDY    29  23  78 W9        29.99F WCI  20
SIOUX FALLS    CLOUDY    31  27  85 W7        29.99F WCI  24
OMAHA          CLOUDY    32  23  69 CALM      30.12F
GRAND ISLAND   CLOUDY    25  21  85 W9        30.14F WCI  15
SCOTTSBLUFF    CLOUDY    10   7  87 NW6       30.10F WCI   0
KANSAS CITY    CLOUDY    35  30  82 W6        30.12R WCI  30
HILL CITY      CLEAR     23  19  85 W7        30.21S WCI  15
WICHITA        PTCLDY    33  30  88 NW9       30.20S WCI  25
DODGE CITY     CLEAR     25  19  78 W9        30.24S WCI  15
OKLAHOMA CITY  CLEAR     33  28  81 NW10      30.24R WCI  25
DALLAS         MOCLDY    41  27  57 NW7       30.22R
AMARILLO       CLEAR     25  22  88 W9        30.30S WCI  15
$$




USA.gov is the U.S. government's official web portal to all federal, state and local government web resources and services.